timestamp,wind_dir_avg,wind_spd_max_dir,wind_spd_avg,wind_spd_gust,battery_voltage,lat,long
2018-11-22 00:00:00+00:00,289.0,284.0,4.83,5.44,,47.59359,-54.27349
2018-11-22 00:10:00+00:00,276.0,268.0,7.49,9.08,,47.59359,-54.27349
2018-11-22 00:20:00+00:00,274.0,279.0,7.48,8.62,,47.59359,-54.27349
2018-11-22 00:30:00+00:00,284.0,289.0,10.42,12.34,,47.59359,-54.27349
2018-11-22 00:40:00+00:00,282.0,289.0,9.54,11.4,,47.59359,-54.27349
2018-11-22 00:50:00+00:00,273.0,275.0,10.58,14.78,,47.59359,-54.27349
2018-11-22 01:00:00+00:00,289.0,297.0,9.11,10.81,,47.59359,-54.27349
2018-11-22 01:10:00+00:00,285.0,289.0,9.38,11.09,,47.59359,-54.27349
2018-11-22 01:20:00+00:00,289.0,292.0,10.31,11.51,,47.59359,-54.27349
2018-11-22 01:30:00+00:00,287.0,282.0,9.85,11.33,,47.59359,-54.27349
2018-11-22 01:40:00+00:00,288.0,287.0,8.42,9.56,,47.59359,-54.27349
2018-11-22 01:50:00+00:00,270.0,264.0,9.41,11.12,,47.59359,-54.27349
2018-11-22 02:00:00+00:00,278.0,278.0,8.94,10.72,,47.59359,-54.27349
2018-11-22 02:10:00+00:00,278.0,281.0,9.67,10.41,,47.59359,-54.27349
2018-11-22 02:20:00+00:00,273.0,272.0,9.44,10.63,,47.59359,-54.27349
2018-11-22 02:30:00+00:00,278.0,278.0,10.56,11.73,,47.59359,-54.27349
2018-11-22 02:40:00+00:00,278.0,284.0,10.92,12.1,,47.59359,-54.27349
2018-11-22 02:50:00+00:00,270.0,274.0,10.3,11.61,,47.59359,-54.27349
2018-11-22 03:00:00+00:00,280.0,284.0,10.16,12.21,,47.59359,-54.27349
2018-11-22 03:10:00+00:00,277.0,273.0,10.63,12.38,,47.59359,-54.27349
2018-11-22 03:20:00+00:00,280.0,279.0,10.62,11.43,,47.59359,-54.27349
2018-11-22 03:30:00+00:00,284.0,286.0,12.68,13.74,,47.59359,-54.27349
2018-11-22 03:40:00+00:00,288.0,293.0,10.44,11.58,,47.59359,-54.27349
2018-11-22 03:50:00+00:00,285.0,285.0,10.46,11.57,,47.59359,-54.27349
2018-11-22 04:00:00+00:00,281.0,284.0,9.54,11.33,,47.59359,-54.27349
2018-11-22 04:10:00+00:00,275.0,273.0,9.09,11.04,,47.59359,-54.27349
2018-11-22 04:20:00+00:00,283.0,284.0,9.59,10.5,,47.59359,-54.27349
2018-11-22 04:30:00+00:00,280.0,279.0,8.84,10.2,,47.59359,-54.27349
2018-11-22 04:40:00+00:00,271.0,269.0,9.03,10.69,,47.59359,-54.27349
2018-11-22 04:50:00+00:00,262.0,260.0,8.67,10.01,,47.59359,-54.27349
2018-11-22 05:00:00+00:00,258.0,253.0,8.0,8.8,,47.59359,-54.27349
2018-11-22 05:10:00+00:00,260.0,259.0,8.43,9.57,,47.59359,-54.27349
2018-11-22 05:20:00+00:00,264.0,272.0,7.82,9.49,,47.59359,-54.27349
2018-11-22 05:30:00+00:00,267.0,278.0,7.34,8.89,,47.59359,-54.27349
2018-11-22 05:40:00+00:00,253.0,256.0,8.24,9.16,,47.59359,-54.27349
2018-11-22 05:50:00+00:00,256.0,256.0,8.27,9.45,,47.59359,-54.27349
2018-11-22 06:00:00+00:00,261.0,263.0,7.58,8.95,,47.59359,-54.27349
2018-11-22 06:10:00+00:00,257.0,258.0,7.58,8.28,,47.59359,-54.27349
2018-11-22 06:20:00+00:00,252.0,258.0,6.12,7.33,,47.59359,-54.27349
2018-11-22 06:30:00+00:00,265.0,271.0,6.62,7.21,,47.59359,-54.27349
2018-11-22 06:40:00+00:00,252.0,256.0,7.08,8.16,,47.59359,-54.27349
2018-11-22 06:50:00+00:00,256.0,258.0,6.67,8.22,,47.59359,-54.27349
2018-11-22 07:00:00+00:00,254.0,253.0,5.88,6.91,,47.59359,-54.27349
2018-11-22 07:10:00+00:00,245.0,251.0,6.4,7.52,,47.59359,-54.27349
2018-11-22 07:20:00+00:00,244.0,247.0,5.69,6.8,,47.59359,-54.27349
2018-11-22 07:30:00+00:00,244.0,244.0,5.99,7.28,,47.59359,-54.27349
2018-11-22 07:40:00+00:00,234.0,227.0,4.74,5.37,,47.59359,-54.27349
2018-11-22 07:50:00+00:00,233.0,234.0,5.66,6.24,,47.59359,-54.27349
2018-11-22 08:00:00+00:00,229.0,228.0,5.19,6.09,,47.59359,-54.27349
2018-11-22 08:10:00+00:00,229.0,233.0,4.96,5.98,,47.59359,-54.27349
2018-11-22 08:20:00+00:00,229.0,231.0,5.32,6.13,,47.59359,-54.27349
2018-11-22 08:30:00+00:00,217.0,222.0,5.32,6.2,,47.59359,-54.27349
2018-11-22 08:40:00+00:00,214.0,211.0,7.61,8.18,,47.59359,-54.27349
2018-11-22 08:50:00+00:00,164.0,160.0,5.62,6.34,,47.59359,-54.27349
2018-11-22 09:00:00+00:00,175.0,170.0,5.42,6.46,,47.59359,-54.27349
2018-11-22 09:10:00+00:00,168.0,170.0,5.45,6.35,,47.59359,-54.27349
2018-11-22 09:20:00+00:00,183.0,182.0,6.57,7.67,,47.59359,-54.27349
2018-11-22 09:30:00+00:00,165.0,176.0,6.36,7.54,,47.59359,-54.27349
2018-11-22 09:40:00+00:00,194.0,193.0,7.83,9.43,,47.59359,-54.27349
2018-11-22 09:50:00+00:00,196.0,193.0,8.36,9.63,,47.59359,-54.27349
2018-11-22 10:00:00+00:00,194.0,197.0,8.78,9.57,,47.59359,-54.27349
2018-11-22 10:10:00+00:00,187.0,193.0,7.4,8.22,,47.59359,-54.27349
2018-11-22 10:20:00+00:00,180.0,183.0,9.28,10.59,,47.59359,-54.27349
2018-11-22 10:30:00+00:00,189.0,189.0,8.63,9.96,,47.59359,-54.27349
2018-11-22 10:40:00+00:00,188.0,188.0,10.4,12.08,,47.59359,-54.27349
2018-11-22 10:50:00+00:00,176.0,172.0,9.46,10.44,,47.59359,-54.27349
2018-11-22 11:00:00+00:00,173.0,172.0,8.12,9.85,,47.59359,-54.27349
2018-11-22 11:10:00+00:00,181.0,186.0,11.05,12.56,,47.59359,-54.27349
2018-11-22 11:20:00+00:00,185.0,189.0,11.41,12.75,,47.59359,-54.27349
2018-11-22 11:30:00+00:00,180.0,176.0,10.84,12.63,,47.59359,-54.27349
2018-11-22 11:40:00+00:00,180.0,174.0,11.01,12.42,,47.59359,-54.27349
2018-11-22 11:50:00+00:00,182.0,182.0,10.9,12.29,,47.59359,-54.27349
2018-11-22 12:00:00+00:00,182.0,185.0,9.31,10.28,,47.59359,-54.27349
2018-11-22 12:10:00+00:00,182.0,182.0,11.78,13.81,,47.59359,-54.27349
2018-11-22 12:20:00+00:00,186.0,189.0,12.29,13.98,,47.59359,-54.27349
2018-11-22 12:30:00+00:00,187.0,191.0,13.2,15.95,,47.59359,-54.27349
2018-11-22 12:40:00+00:00,187.0,191.0,11.88,14.53,,47.59359,-54.27349
2018-11-22 12:50:00+00:00,187.0,188.0,12.93,15.22,,47.59359,-54.27349
2018-11-22 13:00:00+00:00,186.0,189.0,12.93,15.99,,47.59359,-54.27349
2018-11-22 13:10:00+00:00,186.0,194.0,13.79,15.85,,47.59359,-54.27349
2018-11-22 13:20:00+00:00,184.0,181.0,15.93,17.75,,47.59359,-54.27349
2018-11-22 13:30:00+00:00,187.0,190.0,14.63,17.35,,47.59359,-54.27349
2018-11-22 13:40:00+00:00,185.0,180.0,16.11,19.63,,47.59359,-54.27349
2018-11-22 13:50:00+00:00,185.0,189.0,16.68,19.88,,47.59359,-54.27349
2018-11-22 14:00:00+00:00,184.0,186.0,16.12,18.05,,47.59359,-54.27349
2018-11-22 14:10:00+00:00,187.0,190.0,15.25,17.9,,47.59359,-54.27349
2018-11-22 14:20:00+00:00,181.0,185.0,17.92,20.81,,47.59359,-54.27349
2018-11-22 14:30:00+00:00,184.0,188.0,16.91,19.67,,47.59359,-54.27349
2018-11-22 14:40:00+00:00,183.0,181.0,17.94,20.53,,47.59359,-54.27349
2018-11-22 14:50:00+00:00,207.0,204.0,16.28,18.86,,47.59359,-54.27349
2018-11-22 15:00:00+00:00,196.0,194.0,17.91,19.44,,47.59359,-54.27349
2018-11-22 15:10:00+00:00,204.0,207.0,16.82,19.74,,47.59359,-54.27349
2018-11-22 15:20:00+00:00,207.0,197.0,14.78,17.12,,47.59359,-54.27349
2018-11-22 15:30:00+00:00,239.0,240.0,13.45,16.25,,47.59359,-54.27349
2018-11-22 15:40:00+00:00,234.0,233.0,11.52,13.48,,47.59359,-54.27349
2018-11-22 15:50:00+00:00,217.0,218.0,11.64,14.26,,47.59359,-54.27349
2018-11-22 16:00:00+00:00,219.0,220.0,12.79,14.81,,47.59359,-54.27349
2018-11-22 16:10:00+00:00,234.0,236.0,13.06,14.38,,47.59359,-54.27349
2018-11-22 16:20:00+00:00,232.0,233.0,10.37,11.3,,47.59359,-54.27349
2018-11-22 16:30:00+00:00,239.0,244.0,10.85,11.99,,47.59359,-54.27349
2018-11-22 16:40:00+00:00,238.0,243.0,10.65,12.52,,47.59359,-54.27349
2018-11-22 16:50:00+00:00,249.0,257.0,12.38,14.56,,47.59359,-54.27349
2018-11-22 17:00:00+00:00,250.0,247.0,11.9,14.53,,47.59359,-54.27349
2018-11-22 17:10:00+00:00,263.0,267.0,14.86,17.76,,47.59359,-54.27349
2018-11-22 17:20:00+00:00,260.0,259.0,12.95,14.27,,47.59359,-54.27349
2018-11-22 17:30:00+00:00,260.0,262.0,13.25,14.73,,47.59359,-54.27349
2018-11-22 17:40:00+00:00,263.0,263.0,14.61,17.0,,47.59359,-54.27349
2018-11-22 18:00:00+00:00,253.0,252.0,15.43,17.16,,47.59359,-54.27349
2018-11-22 18:10:00+00:00,252.0,248.0,14.38,16.88,,47.59359,-54.27349
2018-11-22 18:20:00+00:00,256.0,257.0,11.86,13.35,,47.59359,-54.27349
2018-11-22 18:30:00+00:00,259.0,262.0,12.48,15.18,,47.59359,-54.27349
2018-11-22 18:40:00+00:00,259.0,258.0,14.7,16.62,,47.59359,-54.27349
2018-11-22 18:50:00+00:00,258.0,262.0,14.45,16.21,,47.59359,-54.27349
2018-11-22 19:00:00+00:00,258.0,258.0,13.27,15.15,,47.59359,-54.27349
2018-11-22 19:10:00+00:00,236.0,233.0,11.11,13.01,,47.59359,-54.27349
2018-11-22 19:20:00+00:00,242.0,245.0,11.43,14.34,,47.59359,-54.27349
2018-11-22 19:30:00+00:00,243.0,247.0,10.96,13.04,,47.59359,-54.27349
2018-11-22 19:40:00+00:00,241.0,243.0,10.03,12.4,,47.59359,-54.27349
2018-11-22 19:50:00+00:00,258.0,257.0,10.87,12.33,,47.59359,-54.27349
2018-11-22 20:00:00+00:00,239.0,242.0,8.47,10.42,,47.59359,-54.27349
2018-11-22 20:10:00+00:00,248.0,255.0,12.2,14.45,,47.59359,-54.27349
2018-11-22 20:20:00+00:00,241.0,231.0,11.56,13.79,,47.59359,-54.27349
2018-11-22 20:30:00+00:00,246.0,250.0,12.72,14.43,,47.59359,-54.27349
2018-11-22 20:40:00+00:00,249.0,254.0,13.13,15.38,,47.59359,-54.27349
2018-11-22 20:50:00+00:00,245.0,251.0,11.01,12.89,,47.59359,-54.27349
2018-11-22 21:00:00+00:00,260.0,259.0,14.87,17.63,,47.59359,-54.27349
2018-11-22 21:10:00+00:00,258.0,259.0,14.27,16.41,,47.59359,-54.27349
2018-11-22 21:20:00+00:00,260.0,259.0,13.7,15.77,,47.59359,-54.27349
2018-11-22 21:30:00+00:00,270.0,276.0,12.15,14.67,,47.59359,-54.27349
2018-11-22 21:40:00+00:00,257.0,256.0,11.57,13.14,,47.59359,-54.27349
2018-11-22 21:50:00+00:00,259.0,262.0,12.37,14.17,,47.59359,-54.27349
2018-11-22 22:00:00+00:00,260.0,263.0,13.46,14.86,,47.59359,-54.27349
2018-11-22 22:10:00+00:00,266.0,266.0,12.26,14.86,,47.59359,-54.27349
2018-11-22 22:20:00+00:00,266.0,269.0,11.86,13.7,,47.59359,-54.27349
2018-11-22 22:30:00+00:00,257.0,257.0,13.4,14.61,,47.59359,-54.27349
2018-11-22 22:40:00+00:00,258.0,256.0,11.73,13.87,,47.59359,-54.27349
2018-11-22 22:50:00+00:00,260.0,253.0,11.55,12.7,,47.59359,-54.27349
2018-11-22 23:00:00+00:00,256.0,257.0,13.92,15.98,,47.59359,-54.27349
2018-11-22 23:10:00+00:00,260.0,268.0,13.71,16.08,,47.59359,-54.27349
2018-11-22 23:20:00+00:00,280.0,284.0,14.08,16.03,,47.59359,-54.27349
2018-11-22 23:30:00+00:00,265.0,264.0,10.8,11.87,,47.59359,-54.27349
2018-11-22 23:40:00+00:00,266.0,263.0,12.37,13.85,,47.59359,-54.27349
2018-11-22 23:50:00+00:00,264.0,261.0,11.21,13.36,,47.59359,-54.27349
